Mountain Home AFB, ID

5:17 AM MST on February 27, 2017 (GMT -0700)
Mountain Home Air Force Base

Weather History for KMUO - February, 2014

Change the Weather History Date:

Thursday, February 13, 2014

  Actual Average Record
Temperature  
Mean Temperature 45 °F 34 °F  
Max Temperature 53 °F 44 °F 63 °F (1934)
Min Temperature 37 °F 24 °F -11 °F (1949)
Degree Days  
Heating Degree Days 20 31  
Month to date heating degree days 373 413  
Cooling Degree Days 0 0  
Month to date cooling degree days 0 0  
Moisture  
Dew Point 42 °F    
Average Humidity 96    
Maximum Humidity 100    
Minimum Humidity 78    
Precipitation  
Precipitation 0.01 in 0.03 in 0.58 in (1975)
Month to date precipitation 0.22 0.37  
Sea Level Pressure  
Sea Level Pressure 30.05 in    
Wind  
Wind Speed 8 mph (ENE)    
Max Wind Speed 26 mph    
Max Gust Speed 36 mph    
Visibility 10 miles    
Events      
T = Trace of Precipitation, MM = Missing Value Source: NWS Daily Summary

Daily Weather History Graph

Daily Weather History Graph

Search for Another Location

Airport or City:

Trip Planner

Search our weather history database for the weather conditions in past years. The results will help you decide how hot, cold, wet, or windy it might be!

Date:

Astronomy

Feb. 13, 2014 Rise Set
Actual Time 7:43 AM MST 6:12 PM MST
Civil Twilight 7:14 AM MST 6:41 PM MST
Nautical Twilight 6:41 AM MST 7:14 PM MST
Astronomical Twilight 6:08 AM MST 7:47 PM MST
Moon 5:24 PM MST (2/13) 6:39 AM MST (2/13)
Length of Visible Light 11h 27m
Length of Day
10h 28m
Waxing Gibbous, 99% of the Moon is Illuminated
Feb 13
Waxing Gibbous
Feb 14
Full
Feb 22
Last Quarter
Mar 1
New
Mar 8
First Quarter

Hourly Weather History & Observations

Time (MST) Temp. Windchill Dew Point Humidity Pressure Visibility Wind Dir Wind Speed Gust Speed Precip Events Conditions
12:58 AM 41.0 °F 35.2 °F - N/A% 30.01 in 10.0 mi ESE 9.2 mph - 0.01 in   Overcast
1:13 AM 41.0 °F 35.8 °F - N/A% 29.99 in 10.0 mi East 8.1 mph - N/A   Scattered Clouds
1:58 AM 39.2 °F 34.2 °F - N/A% 30.02 in 10.0 mi East 6.9 mph - 0.00 in   Light Drizzle
2:23 AM 39.2 °F 33.6 °F - N/A% 29.99 in 10.0 mi East 8.1 mph - N/A   Light Drizzle
2:33 AM 39.2 °F 33.6 °F - N/A% 29.99 in 10.0 mi East 8.1 mph - N/A   Light Drizzle
2:58 AM 39.2 °F 34.2 °F - N/A% 30.02 in 10.0 mi East 6.9 mph - 0.00 in   Light Drizzle
3:03 AM 39.2 °F 33.6 °F - N/A% 30.00 in 10.0 mi East 8.1 mph - N/A   Light Drizzle
3:23 AM 37.4 °F 32.1 °F - N/A% 29.99 in 10.0 mi East 6.9 mph - N/A   Light Drizzle
3:54 AM 39.2 °F 35.0 °F - N/A% 29.98 in 10.0 mi East 5.8 mph - N/A   Light Drizzle
3:58 AM 39.2 °F 34.2 °F - N/A% 30.01 in 10.0 mi East 6.9 mph - 0.00 in   Light Drizzle
4:23 AM 37.4 °F 32.1 °F - N/A% 29.98 in 10.0 mi East 6.9 mph - N/A   Light Drizzle
4:58 AM 37.4 °F 32.1 °F 37.4 °F 100% 30.01 in 10.0 mi East 6.9 mph - 0.00 in   Light Drizzle
5:58 AM 39.2 °F 33.6 °F 39.2 °F 100% 30.00 in 10.0 mi East 8.1 mph - 0.00 in   Light Drizzle
6:58 AM 39.2 °F 35.0 °F 39.2 °F 100% 30.01 in 10.0 mi ENE 5.8 mph - 0.00 in   Light Drizzle
7:48 AM 37.4 °F 32.8 °F 37.4 °F 100% 30.00 in 10.0 mi East 5.8 mph - N/A   Light Drizzle
7:58 AM 37.4 °F 33.8 °F 37.4 °F 100% 30.03 in 10.0 mi East 4.6 mph - 0.00 in   Light Drizzle
8:38 AM 37.4 °F 33.8 °F 37.4 °F 100% 30.00 in 10.0 mi SE 4.6 mph - N/A   Light Drizzle
8:58 AM 39.2 °F - 39.2 °F 100% 30.05 in 10.0 mi East 2.3 mph - 0.00 in   Light Drizzle
9:15 AM 41.0 °F 39.0 °F 41.0 °F 100% 30.01 in 10.0 mi SE 3.5 mph - N/A   Mostly Cloudy
9:58 AM 43.9 °F - 43.9 °F 100% 30.05 in 10.0 mi ESE 2.3 mph - 0.00 in   Mostly Cloudy
10:14 AM 44.6 °F - 44.6 °F 100% 30.03 in 10.0 mi East 2.3 mph - N/A   Mostly Cloudy
10:58 AM 46.4 °F - 46.4 °F 100% 30.06 in 10.0 mi North 2.3 mph - N/A   Mostly Cloudy
11:25 AM 48.2 °F - 48.2 °F 100% 30.05 in 10.0 mi NNW 4.6 mph - N/A   Mostly Cloudy
11:58 AM 52.0 °F - 49.6 °F 92% 30.06 in 10.0 mi WNW 10.4 mph - N/A   Overcast
12:45 PM 51.8 °F - 50.0 °F 94% 30.05 in 10.0 mi NW 16.1 mph 17.3 mph N/A   Overcast
12:58 PM 51.4 °F - 46.9 °F 85% 30.06 in 10.0 mi NW 19.6 mph 24.2 mph N/A   Mostly Cloudy
1:28 PM 50.0 °F - 50.0 °F 100% 30.05 in 10.0 mi NNW 26.5 mph 32.2 mph N/A   Mostly Cloudy
1:58 PM 49.6 °F - 49.3 °F 99% 30.06 in 10.0 mi NNW 26.5 mph 33.4 mph N/A   Mostly Cloudy
2:58 PM 48.9 °F - 46.8 °F 92% 30.07 in 10.0 mi NNW 23.0 mph 35.7 mph N/A   Mostly Cloudy
3:58 PM 48.0 °F - 44.8 °F 89% 30.09 in 10.0 mi North 17.3 mph - N/A   Mostly Cloudy
4:58 PM 47.8 °F - 41.2 °F 78% 30.11 in 10.0 mi NNW 9.2 mph - N/A   Mostly Cloudy
5:33 PM 46.4 °F 42.4 °F 42.8 °F 87% 30.08 in 10.0 mi NNW 8.1 mph - N/A   Mostly Cloudy
5:43 PM 46.4 °F 42.4 °F 42.8 °F 87% 30.09 in 10.0 mi NNW 8.1 mph - N/A   Scattered Clouds
5:58 PM 46.0 °F 41.4 °F 42.6 °F 88% 30.12 in 10.0 mi NNW 9.2 mph - N/A   Mostly Cloudy
6:58 PM 41.0 °F 35.8 °F 41.0 °F 100% 30.14 in 10.0 mi West 8.1 mph - N/A   Clear
7:58 PM 40.6 °F 35.4 °F 40.6 °F 100% 30.14 in 10.0 mi West 8.1 mph - N/A   Clear
8:58 PM 40.1 °F 35.3 °F 40.1 °F 100% 30.12 in 10.0 mi SW 6.9 mph - N/A   Clear
9:58 PM 38.7 °F 33.6 °F 38.7 °F 100% 30.13 in 10.0 mi South 6.9 mph - N/A   Clear
10:58 PM 38.5 °F 34.1 °F 38.5 °F 100% 30.13 in 10.0 mi SSE 5.8 mph - N/A   Partly Cloudy
11:28 PM 39.2 °F 34.2 °F 39.2 °F 100% 30.10 in 10.0 mi SSE 6.9 mph - N/A   Mostly Cloudy
11:58 PM 38.5 °F 34.1 °F 38.5 °F 100% 30.12 in 10.0 mi East 5.8 mph - N/A   Mostly Cloudy